"startDT [UTC]","vpos","CH4 [ppm]","stdev(CH4) [ppm]","CO2 [ppm]","stdev(CO2) [ppm]","H2O_reported [%]","stdev(H2O_reported)","CavityPressure [torr]","CavityTemp [C]","OutletValve","CH4_dry [ppm]","CO2_dry [ppm]","DasTemp [C]","EtalonTemp [C]","WarmBoxTemp [C]","MPVPosition","T_ECpre [C]","T_EC1 [C]","T_EC2 [C]","p_inlet [hPa]","p_in [hPa]","p_out [hPa]","T_inlet [C]","RH_inlet [%]","dwpt_inlet [C]","T_vent [C]","RH_vent [%]","dwpt_vent [C]","flow_vent [l min-1]","flow_inlet [l min-1]","dwpt_sample [C]","T_room [C]"
2015-11-12 00:00:00,3.0,1.88323,0.02072,399.225,2.775,0.0455,0.0653,139.996,45.000,31426.51938,1.88623,399.616,31.063,45.071,45.000,0.00,0.09,-272.72,-272.78,1,515,-939,15.5,8.9,-17.4,15.7,9.0,-17.1,5.73,1.89,-12.6,22.3
2015-11-12 00:01:00,3.0,1.87636,0.00039,397.070,0.048,0.0106,0.0017,139.999,45.000,31426.90772,1.87656,397.121,31.063,45.071,45.000,0.00,0.09,-272.73,-272.79,1,515,-939,15.5,8.9,-17.4,15.7,9.0,-17.1,5.73,1.95,-12.6,22.3
2015-11-12 00:02:00,3.0,1.87631,0.00037,397.283,0.126,0.0111,0.0019,139.997,45.000,31425.65230,1.87652,397.330,31.060,45.070,45.000,0.00,0.09,-272.74,-272.79,-0,515,-939,15.5,8.9,-17.4,15.7,9.0,-17.2,5.73,2.09,-12.6,22.2
2015-11-12 00:03:00,3.0,1.87635,0.00036,397.494,0.029,0.0106,0.0023,139.998,44.999,31425.52907,1.87655,397.544,31.050,45.070,45.000,0.00,0.09,-272.73,-272.77,0,515,-939,15.5,8.9,-17.4,15.7,9.0,-17.1,5.73,2.09,-12.7,22.3
2015-11-12 00:04:00,3.0,1.87630,0.00038,397.520,0.044,0.0094,0.0022,139.999,45.000,31428.45091,1.87648,397.566,31.048,45.070,45.000,0.00,0.09,-272.73,-272.78,1,515,-939,15.5,8.9,-17.4,15.7,9.0,-17.1,5.73,1.96,-12.7,22.3
2015-11-12 00:05:00,3.0,1.87608,0.00030,397.519,0.024,0.0078,0.0023,140.001,45.000,31432.74882,1.87622,397.556,31.043,45.071,45.000,0.00,0.09,-272.74,-272.78,0,515,-939,15.6,8.9,-17.4,15.7,9.0,-17.1,5.73,1.90,-12.7,22.2
2015-11-12 00:06:00,3.0,1.87611,0.00034,397.539,0.019,0.0059,0.0015,139.999,44.999,31431.78555,1.87623,397.567,31.058,45.071,45.000,0.00,0.09,-272.73,-272.78,-0,515,-939,15.6,8.8,-17.4,15.7,9.0,-17.1,5.73,2.03,-12.6,22.3
2015-11-12 00:07:00,3.0,1.87591,0.00032,397.534,0.028,0.0051,0.0016,140.000,45.000,31434.22693,1.87602,397.560,31.063,45.070,45.000,0.00,0.09,-272.73,-272.78,1,515,-939,15.7,8.9,-17.3,15.8,9.0,-17.1,5.73,2.12,-12.6,22.3
2015-11-12 00:08:00,3.0,1.87609,0.00034,397.547,0.024,0.0047,0.0020,140.000,45.000,31434.43168,1.87616,397.569,31.063,45.070,45.000,0.00,0.09,-272.74,-272.79,1,515,-939,15.7,8.9,-17.3,15.8,9.0,-17.1,5.73,2.02,-12.6,22.3
2015-11-12 00:09:00,3.0,1.87625,0.00033,397.553,0.032,0.0028,0.0016,139.997,45.000,31433.45099,1.87631,397.566,31.063,45.070,45.000,0.00,0.09,-272.73,-272.79,-0,515,-939,15.7,8.8,-17.3,15.8,8.9,-17.1,5.73,1.90,-12.6,22.3
2015-11-12 00:10:00,3.0,1.87651,0.00047,397.565,0.031,0.0031,0.0025,139.997,45.000,31433.93675,1.87654,397.580,31.066,45.070,45.000,0.00,0.09,-272.72,-272.79,0,515,-939,15.7,8.8,-17.3,15.8,8.9,-17.1,5.73,1.95,-12.6,22.3
2015-11-12 00:11:00,3.0,1.87637,0.00030,397.564,0.026,0.0025,0.0018,139.998,45.000,31433.02823,1.87643,397.576,31.063,45.070,45.000,0.00,0.09,-272.73,-272.79,1,515,-939,15.7,8.8,-17.3,15.9,8.9,-17.1,5.73,2.09,-12.6,22.3
2015-11-12 00:12:00,3.0,1.87623,0.00033,397.566,0.021,0.0021,0.0022,139.996,45.000,31434.16883,1.87628,397.577,31.066,45.070,45.000,0.00,0.09,-272.74,-272.79,0,516,-939,15.8,8.8,-17.3,15.9,8.9,-17.1,5.73,2.09,-12.6,22.3
2015-11-12 00:13:00,3.0,1.87624,0.00033,397.562,0.033,0.0022,0.0020,140.002,45.000,31437.04152,1.87628,397.571,31.063,45.070,45.000,0.00,0.09,-272.73,-272.79,-0,516,-939,15.8,8.8,-17.3,15.9,8.9,-17.1,5.73,1.94,-12.6,22.3
2015-11-12 00:14:00,3.0,1.87638,0.00037,397.562,0.034,0.0012,0.0011,139.999,45.000,31438.94231,1.87638,397.567,31.060,45.070,45.000,0.00,0.09,-272.73,-272.79,1,516,-939,15.8,8.8,-17.3,15.9,8.9,-17.1,5.73,1.91,-12.6,22.4
2015-11-12 00:15:00,3.0,1.87629,0.00036,397.557,0.034,0.0005,0.0020,140.002,45.000,31442.25641,1.87631,397.560,31.057,45.070,45.000,0.00,0.09,-272.73,-272.79,1,516,-939,15.9,8.8,-17.3,15.9,8.9,-17.0,5.73,2.04,-12.6,22.3
2015-11-12 00:16:00,3.0,1.87615,0.00037,397.573,0.030,0.0015,0.0019,139.997,45.000,31442.33047,1.87619,397.579,31.053,45.070,45.000,0.00,0.09,-272.73,-272.78,-0,517,-939,15.9,8.7,-17.3,16.0,8.9,-17.0,5.73,2.11,-12.6,22.3
2015-11-12 00:17:00,3.0,1.87653,0.00035,397.595,0.028,0.0015,0.0018,140.000,45.000,31444.43024,1.87655,397.603,31.052,45.070,45.000,0.00,0.09,-272.73,-272.78,0,517,-939,15.9,8.7,-17.3,16.0,8.9,-17.1,5.73,1.98,-12.6,22.3
2015-11-12 00:18:00,3.0,1.87617,0.00041,397.576,0.032,0.0006,0.0014,139.999,45.000,31447.03589,1.87621,397.579,31.023,45.070,45.000,0.00,0.09,-272.74,-272.79,1,517,-939,15.9,8.7,-17.3,16.0,8.9,-17.0,5.73,1.89,-12.6,22.3
2015-11-12 00:19:00,3.0,1.87612,0.00039,397.559,0.031,0.0009,0.0012,139.999,45.000,31450.47247,1.87612,397.564,31.007,45.071,45.000,0.00,0.09,-272.73,-272.79,-0,517,-939,16.0,8.7,-17.3,16.1,8.8,-17.0,5.73,2.00,-12.6,22.4
2015-11-12 00:20:00,0.0,1.93074,0.01988,404.801,2.809,0.1635,0.0695,139.994,45.000,31405.82640,1.93170,405.439,31.003,45.071,45.000,0.00,0.09,-272.73,-272.78,-2,511,-939,16.0,8.7,-17.3,16.1,8.8,-17.0,5.73,2.21,-12.6,22.4
2015-11-12 00:21:00,0.0,1.93794,0.00033,405.907,0.029,0.2022,0.0016,139.999,45.000,31414.97650,1.94183,406.899,31.017,45.071,45.000,0.00,0.09,-272.73,-272.79,-1,512,-939,16.1,8.6,-17.3,16.1,8.8,-17.0,5.73,1.94,-12.6,22.4
2015-11-12 00:22:00,0.0,1.93767,0.00043,405.856,0.061,0.2047,0.0018,139.999,45.000,31417.57660,1.94158,406.860,31.043,45.071,45.000,0.00,0.09,-272.74,-272.79,-2,513,-939,16.1,8.6,-17.3,16.1,8.8,-17.0,5.73,1.94,-12.6,22.4
2015-11-12 00:23:00,0.0,1.93785,0.00039,405.871,0.039,0.2051,0.0017,140.000,45.000,31418.88373,1.94179,406.877,31.062,45.070,45.000,0.00,0.09,-272.73,-272.79,-1,513,-939,16.1,8.6,-17.3,16.2,8.8,-17.0,5.73,2.16,-12.6,22.5
2015-11-12 00:24:00,0.0,1.93786,0.00033,405.824,0.031,0.2053,0.0020,139.998,45.000,31420.27073,1.94178,406.829,31.065,45.070,45.000,0.00,0.09,-272.73,-272.78,-1,513,-939,16.2,8.6,-17.3,16.2,8.8,-17.0,5.73,2.02,-12.6,22.5
2015-11-12 00:25:00,0.0,1.93793,0.00040,405.818,0.033,0.2055,0.0023,139.999,44.999,31419.94681,1.94190,406.827,31.062,45.070,45.000,0.00,0.09,-272.73,-272.80,-2,513,-939,16.1,8.6,-17.3,16.2,8.8,-17.0,5.73,1.89,-12.6,22.5
2015-11-12 00:26:00,0.0,1.93811,0.00041,405.839,0.038,0.2046,0.0017,140.001,45.000,31422.47517,1.94198,406.841,31.063,45.070,45.000,0.00,0.09,-272.73,-272.79,-1,513,-939,16.1,8.6,-17.3,16.2,8.8,-17.0,5.73,2.11,-12.6,22.5
2015-11-12 00:27:00,0.0,1.93807,0.00055,405.889,0.045,0.2050,0.0022,139.999,45.000,31420.53586,1.94200,406.895,31.064,45.070,45.000,0.00,0.09,-272.74,-272.79,-1,514,-939,16.2,8.6,-17.3,16.2,8.8,-17.0,5.73,2.10,-12.6,22.5
2015-11-12 00:28:00,0.0,1.93807,0.00040,405.915,0.043,0.2056,0.0024,140.000,45.000,31422.46699,1.94205,406.924,31.040,45.070,45.000,0.00,0.09,-272.74,-272.80,-2,514,-939,16.1,8.5,-17.4,16.2,8.7,-17.1,5.73,1.89,-12.6,22.5
2015-11-12 00:29:00,0.0,1.93776,0.00046,405.922,0.036,0.2041,0.0017,139.998,45.000,31420.77331,1.94165,406.924,31.023,45.070,45.000,0.00,0.09,-272.74,-272.79,-1,514,-939,16.1,8.5,-17.4,16.2,8.7,-17.1,5.73,2.02,-12.6,22.5
2015-11-12 00:30:00,0.0,1.93757,0.00035,405.877,0.034,0.2053,0.0016,140.002,45.001,31426.00101,1.94151,406.884,31.040,45.070,45.000,0.00,0.09,-272.73,-272.78,-1,514,-939,16.2,8.5,-17.4,16.2,8.7,-17.1,5.73,2.16,-12.6,22.5
2015-11-12 00:31:00,0.0,1.93738,0.00043,405.884,0.026,0.2046,0.0020,139.998,45.001,31426.35870,1.94134,406.888,31.044,45.070,45.000,0.00,0.09,-272.73,-272.79,-2,514,-939,16.2,8.5,-17.4,16.2,8.7,-17.1,5.73,1.95,-12.6,22.5
2015-11-12 00:32:00,0.0,1.93760,0.00037,405.921,0.044,0.2040,0.0014,139.998,45.001,31427.50405,1.94148,406.921,31.025,45.071,45.000,0.00,0.09,-272.73,-272.80,-1,514,-939,16.2,8.5,-17.4,16.2,8.7,-17.1,5.73,1.93,-12.6,22.5
2015-11-12 00:33:00,0.0,1.93772,0.00029,405.964,0.025,0.2043,0.0013,139.999,45.001,31428.99077,1.94164,406.967,31.049,45.070,45.000,0.00,0.09,-272.73,-272.79,-2,514,-939,16.2,8.5,-17.4,16.2,8.7,-17.2,5.73,2.14,-12.6,22.5
2015-11-12 00:34:00,0.0,1.93770,0.00053,405.971,0.032,0.2034,0.0019,139.999,45.000,31429.63894,1.94163,406.970,31.058,45.070,45.000,0.00,0.09,-272.73,-272.78,-2,514,-939,16.1,8.5,-17.5,16.2,8.7,-17.2,5.73,2.04,-12.6,22.5
2015-11-12 00:35:00,0.0,1.93759,0.00043,405.920,0.044,0.2036,0.0014,139.998,45.000,31430.62621,1.94148,406.919,31.054,45.070,45.000,0.00,0.09,-272.73,-272.79,-1,514,-939,16.1,8.5,-17.5,16.2,8.6,-17.2,5.73,1.88,-12.6,22.5
2015-11-12 00:36:00,0.0,1.93735,0.00040,405.890,0.032,0.2039,0.0016,139.999,45.000,31432.85408,1.94126,406.890,31.054,45.070,45.000,0.00,0.09,-272.73,-272.79,-2,514,-939,16.1,8.5,-17.4,16.2,8.6,-17.2,5.73,2.10,-12.6,22.5
2015-11-12 00:37:00,0.0,1.93767,0.00039,405.901,0.034,0.2044,0.0018,139.997,45.000,31433.73437,1.94156,406.904,31.029,45.070,45.000,0.00,0.09,-272.73,-272.78,-1,514,-939,16.1,8.5,-17.4,16.2,8.7,-17.2,5.73,2.11,-12.6,22.6
2015-11-12 00:38:00,0.0,1.93804,0.00029,405.971,0.037,0.2050,0.0016,139.998,45.000,31436.79015,1.94197,406.975,31.008,45.071,45.000,0.00,0.09,-272.73,-272.79,-1,515,-939,16.1,8.5,-17.5,16.2,8.7,-17.1,5.73,1.88,-12.5,22.6
2015-11-12 00:39:00,0.0,1.93817,0.00052,406.027,0.046,0.2037,0.0015,140.000,45.000,31436.41388,1.94210,407.027,31.001,45.071,45.000,0.00,0.09,-272.74,-272.79,-2,514,-939,16.0,8.5,-17.5,16.2,8.6,-17.2,5.73,2.04,-12.6,22.6
2015-11-12 00:40:00,0.0,1.93781,0.00035,405.970,0.042,0.2036,0.0017,140.001,45.000,31435.03868,1.94171,406.968,31.000,45.071,45.000,0.00,0.09,-272.73,-272.78,-1,514,-939,16.0,8.5,-17.5,16.2,8.6,-17.2,5.73,2.15,-12.5,22.6
2015-11-12 00:41:00,0.0,1.93783,0.00039,405.988,0.047,0.2031,0.0016,139.997,45.000,31433.76146,1.94171,406.985,31.000,45.071,45.000,0.00,0.09,-272.74,-272.79,-1,515,-939,16.0,8.5,-17.5,16.2,8.6,-17.2,5.73,1.92,-12.5,22.6
2015-11-12 00:42:00,0.0,1.93799,0.00040,405.974,0.032,0.2038,0.0017,139.998,45.000,31434.01158,1.94189,406.973,31.000,45.071,45.000,0.00,0.09,-272.73,-272.79,-2,514,-939,16.0,8.5,-17.5,16.2,8.6,-17.2,5.73,1.96,-12.5,22.6
2015-11-12 00:43:00,0.0,1.93745,0.00039,405.967,0.036,0.2027,0.0020,139.999,45.000,31433.92855,1.94132,406.962,31.000,45.071,45.000,0.00,0.09,-272.74,-272.79,-1,514,-939,16.0,8.5,-17.5,16.2,8.6,-17.2,5.73,2.16,-12.6,22.6
2015-11-12 00:44:00,0.0,1.93741,0.00035,405.866,0.058,0.2039,0.0018,140.000,45.000,31433.79118,1.94133,406.868,31.000,45.071,45.000,0.00,0.09,-272.73,-272.78,-1,515,-939,16.0,8.5,-17.5,16.2,8.6,-17.2,5.73,1.99,-12.5,22.5
2015-11-12 00:45:00,0.0,1.93723,0.00037,405.913,0.030,0.2040,0.0014,139.999,45.000,31435.27900,1.94114,406.914,31.001,45.070,45.000,0.00,0.09,-272.73,-272.79,-2,514,-939,16.0,8.6,-17.5,16.1,8.7,-17.2,5.73,1.90,-12.6,22.6
2015-11-12 00:46:00,0.0,1.93724,0.00043,405.885,0.046,0.2044,0.0014,139.997,45.000,31434.67605,1.94114,406.888,31.002,45.070,45.000,0.00,0.09,-272.73,-272.79,-1,514,-939,15.9,8.6,-17.5,16.1,8.6,-17.2,5.73,2.12,-12.6,22.5
2015-11-12 00:47:00,0.0,1.93745,0.00042,405.917,0.028,0.2043,0.0011,139.997,45.000,31433.97066,1.94138,406.919,31.004,45.070,45.000,0.00,0.09,-272.73,-272.78,-2,514,-939,15.9,8.6,-17.5,16.1,8.6,-17.2,5.73,2.09,-12.6,22.6
2015-11-12 00:48:00,0.0,1.93771,0.00042,405.950,0.035,0.2034,0.0017,140.000,45.000,31432.86540,1.94158,406.949,31.000,45.070,45.000,0.00,0.09,-272.73,-272.79,-1,514,-939,15.9,8.6,-17.5,16.1,8.6,-17.2,5.73,1.89,-12.5,22.6
2015-11-12 00:49:00,0.0,1.93775,0.00037,405.926,0.027,0.2038,0.0015,139.997,45.000,31431.38434,1.94167,406.925,31.003,45.070,45.000,0.00,0.09,-272.73,-272.79,-1,514,-939,15.9,8.6,-17.5,16.1,8.6,-17.2,5.73,2.02,-12.6,22.6
2015-11-12 00:50:00,0.0,1.93779,0.00032,405.943,0.032,0.2031,0.0014,140.000,45.000,31433.02120,1.94167,406.940,31.004,45.070,45.000,0.00,0.09,-272.73,-272.78,-2,514,-939,15.9,8.6,-17.5,16.1,8.6,-17.2,5.73,2.16,-12.6,22.6
2015-11-12 00:51:00,0.0,1.93805,0.00039,405.972,0.040,0.2037,0.0013,139.998,45.000,31432.88964,1.94195,406.970,31.005,45.070,45.000,0.00,0.09,-272.73,-272.78,-1,514,-939,15.9,8.6,-17.5,16.1,8.6,-17.3,5.73,1.97,-12.6,22.6
2015-11-12 00:52:00,0.0,1.93820,0.00025,405.983,0.031,0.2033,0.0017,140.001,45.000,31432.76534,1.94208,406.980,31.003,45.070,45.000,0.00,0.09,-272.74,-272.80,-1,514,-939,15.9,8.6,-17.5,16.1,8.6,-17.3,5.73,1.92,-12.6,22.6
2015-11-12 00:53:00,0.0,1.93838,0.00021,405.976,0.030,0.2031,0.0014,140.000,45.000,31431.86977,1.94227,406.973,31.006,45.070,45.000,0.00,0.09,-272.73,-272.79,-2,514,-939,15.9,8.6,-17.5,16.1,8.6,-17.3,5.73,2.13,-12.6,22.5
2015-11-12 00:54:00,0.0,1.93843,0.00040,405.959,0.031,0.2035,0.0018,139.998,45.000,31430.43267,1.94236,406.958,31.000,45.070,45.000,0.00,0.09,-272.73,-272.78,-1,514,-939,15.9,8.6,-17.5,16.1,8.7,-17.3,5.73,2.08,-12.6,22.5
2015-11-12 00:55:00,0.0,1.93773,0.00051,405.923,0.033,0.2019,0.0020,139.998,45.000,31431.28880,1.94162,406.914,31.000,45.070,45.000,0.00,0.09,-272.73,-272.79,-1,514,-939,15.9,8.6,-17.6,16.1,8.7,-17.3,5.73,1.89,-12.6,22.5
2015-11-12 00:56:00,0.0,1.93796,0.00050,405.950,0.026,0.2032,0.0018,139.999,45.000,31430.82801,1.94184,406.946,31.005,45.070,45.000,0.00,0.09,-272.73,-272.79,-2,514,-939,15.8,8.6,-17.6,16.1,8.7,-17.3,5.73,2.05,-12.6,22.5
2015-11-12 00:57:00,0.0,1.93764,0.00037,405.956,0.040,0.2033,0.0017,140.001,45.000,31433.19024,1.94156,406.953,31.045,45.070,45.000,0.00,0.09,-272.74,-272.78,-1,514,-939,15.8,8.6,-17.6,16.0,8.7,-17.3,5.73,2.15,-12.6,22.5
2015-11-12 00:58:00,0.0,1.93758,0.00034,405.945,0.030,0.2031,0.0020,139.998,45.000,31431.61672,1.94143,406.941,31.062,45.070,45.000,0.00,0.09,-272.73,-272.78,-1,514,-939,15.8,8.6,-17.6,16.0,8.7,-17.3,5.73,1.92,-12.6,22.5
2015-11-12 00:59:00,0.0,1.93790,0.00041,405.963,0.043,0.2032,0.0017,139.999,45.001,31430.98630,1.94179,406.958,31.064,45.070,45.000,0.00,0.09,-272.74,-272.80,-2,514,-939,15.8,8.6,-17.6,16.0,8.7,-17.3,5.73,1.95,-12.6,22.5
2015-11-12 01:00:00,0.0,1.93824,0.00044,405.981,0.034,0.2029,0.0014,139.999,45.000,31429.33048,1.94214,406.979,31.065,45.070,45.000,0.00,0.09,-272.73,-272.78,-1,514,-939,15.8,8.6,-17.6,16.0,8.7,-17.3,5.73,2.16,-12.6,22.5
2015-11-12 01:01:00,0.0,1.93766,0.00047,405.990,0.038,0.2022,0.0016,140.001,45.000,31429.45207,1.94154,406.980,31.069,45.070,45.000,0.00,0.09,-272.73,-272.78,-1,514,-939,15.8,8.6,-17.6,16.0,8.7,-17.3,5.73,2.02,-12.6,22.5
2015-11-12 01:02:00,0.0,1.93789,0.00047,405.998,0.029,0.2024,0.0017,140.000,45.000,31428.71560,1.94175,406.991,31.063,45.070,45.000,0.00,0.09,-272.73,-272.79,-2,514,-939,15.8,8.6,-17.6,16.0,8.7,-17.3,5.73,1.89,-12.6,22.4
2015-11-12 01:03:00,0.0,1.93799,0.00036,406.010,0.028,0.2029,0.0020,140.001,45.000,31427.91532,1.94190,407.006,31.063,45.070,45.000,0.00,0.09,-272.73,-272.79,-0,514,-939,15.8,8.6,-17.6,16.0,8.7,-17.3,5.73,2.12,-12.6,22.5
2015-11-12 01:04:00,0.0,1.93806,0.00043,406.002,0.029,0.2023,0.0018,139.997,45.000,31427.74350,1.94193,406.995,31.052,45.070,45.000,0.00,0.09,-272.73,-272.79,-2,514,-939,15.8,8.6,-17.6,16.0,8.7,-17.3,5.73,2.09,-12.6,22.5
2015-11-12 01:05:00,0.0,1.93803,0.00042,405.998,0.034,0.2021,0.0018,139.998,45.000,31428.68142,1.94190,406.989,31.026,45.070,45.000,0.00,0.09,-272.73,-272.79,-1,514,-939,15.8,8.6,-17.6,16.0,8.7,-17.3,5.73,1.88,-12.6,22.5
2015-11-12 01:06:00,0.0,1.93804,0.00030,405.990,0.037,0.2029,0.0021,139.998,45.000,31427.93281,1.94191,406.986,31.010,45.071,45.000,0.00,0.09,-272.73,-272.79,-1,514,-939,15.7,8.6,-17.6,16.0,8.7,-17.3,5.73,2.07,-12.6,22.5
2015-11-12 01:07:00,0.0,1.93806,0.00039,405.984,0.034,0.2025,0.0015,139.998,45.000,31426.65114,1.94196,406.978,31.001,45.071,45.000,0.00,0.09,-272.73,-272.78,-2,514,-939,15.7,8.6,-17.6,16.0,8.7,-17.3,5.73,2.14,-12.6,22.4
2015-11-12 01:08:00,0.0,1.93809,0.00047,405.996,0.034,0.2025,0.0016,140.000,45.000,31427.19878,1.94196,406.990,31.030,45.071,45.001,0.00,0.09,-272.73,-272.79,-1,514,-939,15.7,8.6,-17.6,16.0,8.7,-17.3,5.73,1.90,-12.6,22.5
2015-11-12 01:09:00,0.0,1.93760,0.00033,405.973,0.043,0.2021,0.0016,139.998,45.001,31427.48549,1.94150,406.965,31.025,45.071,45.000,0.00,0.09,-272.74,-272.79,-1,514,-939,15.7,8.6,-17.6,15.9,8.7,-17.3,5.73,2.00,-12.6,22.5
2015-11-12 01:10:00,0.0,1.93779,0.00032,406.000,0.039,0.2022,0.0013,139.997,45.001,31426.76837,1.94164,406.991,31.020,45.071,45.000,0.00,0.09,-272.74,-272.78,-2,514,-939,15.7,8.6,-17.6,15.9,8.7,-17.3,5.73,2.17,-12.6,22.4
2015-11-12 01:11:00,0.0,1.93813,0.00032,406.011,0.029,0.2018,0.0021,139.998,45.000,31427.54867,1.94199,407.001,31.008,45.071,45.000,0.00,0.09,-272.74,-272.78,-0,514,-939,15.7,8.6,-17.6,15.9,8.7,-17.3,5.73,1.96,-12.6,22.4
2015-11-12 01:12:00,0.0,1.93812,0.00046,406.046,0.032,0.2020,0.0016,140.000,45.000,31425.95178,1.94198,407.037,31.015,45.071,45.000,0.00,0.09,-272.73,-272.79,-1,514,-939,15.7,8.6,-17.6,15.9,8.7,-17.3,5.73,1.93,-12.6,22.4
2015-11-12 01:13:00,0.0,1.93810,0.00037,405.970,0.040,0.2027,0.0019,140.000,45.000,31425.74583,1.94200,406.965,31.019,45.071,45.000,0.00,0.09,-272.74,-272.79,-2,513,-939,15.7,8.6,-17.6,15.9,8.7,-17.3,5.73,2.16,-12.6,22.4
2015-11-12 01:14:00,0.0,1.93819,0.00033,405.976,0.030,0.2024,0.0016,139.998,45.000,31426.61139,1.94204,406.969,31.029,45.070,45.000,0.00,0.09,-272.73,-272.78,-0,513,-939,15.7,8.6,-17.6,15.9,8.7,-17.4,5.73,2.03,-12.6,22.4
2015-11-12 01:15:00,0.0,1.93837,0.00035,406.032,0.032,0.2022,0.0015,140.002,45.000,31427.96791,1.94227,407.024,31.016,45.070,45.000,0.00,0.09,-272.73,-272.79,-2,514,-939,15.7,8.7,-17.6,15.9,8.7,-17.3,5.73,1.89,-12.6,22.4
2015-11-12 01:16:00,0.0,1.93835,0.00045,406.018,0.029,0.2019,0.0016,139.998,45.000,31424.78326,1.94220,407.009,31.003,45.070,45.000,0.00,0.09,-272.73,-272.79,-1,513,-939,15.7,8.6,-17.6,15.9,8.7,-17.4,5.73,2.11,-12.6,22.5
2015-11-12 01:17:00,0.0,1.93810,0.00038,405.962,0.035,0.2033,0.0019,140.000,45.000,31428.39120,1.94200,406.959,31.000,45.070,45.000,0.00,0.09,-272.73,-272.79,-0,513,-939,15.7,8.7,-17.6,15.9,8.7,-17.3,5.73,2.12,-12.6,22.4
2015-11-12 01:18:00,0.0,1.93773,0.00039,405.941,0.030,0.2033,0.0013,140.001,45.000,31427.88319,1.94167,406.939,31.000,45.070,45.000,0.00,0.09,-272.73,-272.79,-2,513,-939,15.7,8.7,-17.6,15.9,8.7,-17.3,5.73,1.90,-12.6,22.4
2015-11-12 01:19:00,0.0,1.93754,0.00044,405.926,0.042,0.2031,0.0017,139.999,45.001,31427.27467,1.94142,406.922,30.998,45.071,45.000,0.00,0.09,-272.73,-272.80,-1,513,-939,15.7,8.7,-17.6,15.9,8.7,-17.3,5.73,2.01,-12.6,22.4
2015-11-12 01:20:00,0.0,1.93766,0.00048,405.956,0.038,0.2032,0.0019,139.998,45.001,31426.45776,1.94153,406.951,31.000,45.071,45.000,0.00,0.09,-272.73,-272.79,-1,514,-939,15.7,8.7,-17.6,15.9,8.7,-17.3,5.73,2.17,-12.6,22.4
2015-11-12 01:21:00,0.0,1.93771,0.00044,405.947,0.053,0.2029,0.0020,140.000,45.000,31427.17686,1.94161,406.942,31.000,45.071,45.000,0.00,0.09,-272.73,-272.78,-2,513,-939,15.6,8.7,-17.6,15.9,8.7,-17.3,5.73,1.97,-12.6,22.4
2015-11-12 01:22:00,0.0,1.93779,0.00049,405.950,0.035,0.2029,0.0016,139.995,45.000,31425.85058,1.94168,406.946,31.000,45.071,45.000,0.00,0.09,-272.73,-272.79,-1,513,-939,15.6,8.7,-17.6,15.9,8.8,-17.3,5.73,1.93,-12.6,22.4
2015-11-12 01:23:00,0.0,1.93796,0.00030,405.953,0.030,0.2033,0.0016,139.998,45.000,31427.78678,1.94186,406.950,31.000,45.070,45.000,0.00,0.09,-272.74,-272.79,-1,514,-939,15.6,8.7,-17.6,15.8,8.8,-17.3,5.73,2.16,-12.6,22.4
2015-11-12 01:24:00,0.0,1.93798,0.00032,405.959,0.039,0.2034,0.0015,139.999,45.000,31428.55362,1.94185,406.957,31.000,45.070,45.000,0.00,0.09,-272.73,-272.78,-2,513,-939,15.6,8.7,-17.6,15.9,8.8,-17.3,5.73,2.04,-12.6,22.4
2015-11-12 01:25:00,0.0,1.93804,0.00044,405.920,0.031,0.2035,0.0017,139.999,45.000,31426.32499,1.94196,406.918,30.999,45.070,45.000,0.00,0.09,-272.74,-272.79,-0,513,-939,15.6,8.7,-17.6,15.8,8.8,-17.3,5.73,1.89,-12.6,22.4
2015-11-12 01:26:00,0.0,1.93807,0.00047,405.896,0.026,0.2034,0.0020,140.001,45.000,31426.56607,1.94195,406.893,30.998,45.070,45.000,0.00,0.09,-272.74,-272.79,-1,514,-939,15.7,8.7,-17.5,15.8,8.8,-17.3,5.73,2.11,-12.6,22.4
2015-11-12 01:27:00,0.0,1.93767,0.00046,405.902,0.042,0.2032,0.0013,140.002,45.000,31428.25284,1.94159,406.901,30.999,45.070,45.000,0.00,0.09,-272.74,-272.78,-1,513,-939,15.7,8.7,-17.5,15.8,8.8,-17.3,5.73,2.11,-12.6,22.4
2015-11-12 01:28:00,0.0,1.93772,0.00040,405.889,0.026,0.2039,0.0021,139.998,45.000,31427.72779,1.94159,406.889,30.995,45.070,45.000,0.00,0.09,-272.73,-272.78,-0,513,-939,15.6,8.7,-17.5,15.8,8.8,-17.3,5.73,1.90,-12.6,22.3
2015-11-12 01:29:00,0.0,1.93773,0.00044,405.895,0.041,0.2041,0.0013,140.001,45.000,31427.29721,1.94166,406.897,31.000,45.070,45.000,0.00,0.09,-272.73,-272.79,-2,513,-939,15.7,8.7,-17.5,15.8,8.8,-17.3,5.73,2.03,-12.6,22.3
2015-11-12 01:30:00,0.0,1.93741,0.00051,405.858,0.045,0.2045,0.0017,140.000,45.000,31427.80666,1.94135,406.860,30.996,45.070,45.000,0.00,0.09,-272.73,-272.79,-1,513,-939,15.7,8.7,-17.5,15.9,8.8,-17.2,5.73,2.17,-12.6,22.4
2015-11-12 01:31:00,0.0,1.93723,0.00043,405.891,0.030,0.2043,0.0015,139.999,45.000,31429.52478,1.94113,406.893,30.998,45.070,45.000,0.00,0.09,-272.73,-272.78,-0,514,-939,15.7,8.7,-17.5,15.8,8.8,-17.2,5.73,1.94,-12.6,22.4
2015-11-12 01:32:00,0.0,1.93738,0.00048,405.851,0.049,0.2046,0.0017,140.001,45.000,31429.91427,1.94130,406.856,30.997,45.070,45.000,0.00,0.09,-272.73,-272.79,-2,513,-939,15.7,8.7,-17.5,15.9,8.8,-17.2,5.73,1.94,-12.6,22.4
2015-11-12 01:33:00,0.0,1.93746,0.00033,405.820,0.035,0.2045,0.0012,139.999,44.999,31428.91788,1.94140,406.823,30.996,45.071,45.000,0.00,0.09,-272.73,-272.79,-1,513,-939,15.6,8.8,-17.5,15.8,8.8,-17.2,5.73,2.17,-12.6,22.4
2015-11-12 01:34:00,0.0,1.93745,0.00044,405.866,0.042,0.2041,0.0017,140.000,45.000,31430.29605,1.94135,406.865,30.999,45.070,45.000,0.00,0.09,-272.73,-272.78,-1,513,-939,15.6,8.8,-17.5,15.8,8.8,-17.2,5.73,2.01,-12.6,22.4
2015-11-12 01:35:00,0.0,1.93777,0.00047,405.892,0.027,0.2045,0.0015,140.000,45.000,31428.26762,1.94168,406.895,30.997,45.071,45.000,0.00,0.09,-272.73,-272.79,-2,513,-940,15.6,8.8,-17.5,15.8,8.8,-17.2,5.73,1.90,-12.6,22.4
2015-11-12 01:36:00,0.0,1.93804,0.00033,405.899,0.045,0.2049,0.0018,140.000,45.000,31428.59809,1.94196,406.905,30.994,45.070,45.000,0.00,0.09,-272.74,-272.79,-0,513,-940,15.6,8.8,-17.5,15.8,8.8,-17.2,5.73,2.15,-12.6,22.3
2015-11-12 01:37:00,0.0,1.93811,0.00055,405.919,0.031,0.2050,0.0015,139.999,45.000,31429.72635,1.94203,406.923,30.987,45.070,45.000,0.00,0.09,-272.73,-272.79,-1,513,-940,15.5,8.8,-17.5,15.8,8.8,-17.2,5.73,2.06,-12.6,22.3
2015-11-12 01:38:00,0.0,1.93798,0.00063,405.906,0.036,0.2045,0.0015,140.001,45.000,31428.96981,1.94194,406.910,30.976,45.070,45.000,0.00,0.09,-272.72,-272.79,-1,513,-939,15.5,8.8,-17.5,15.8,8.8,-17.2,5.73,1.89,-12.6,22.3
2015-11-12 01:39:00,0.0,1.93785,0.00043,405.907,0.033,0.2044,0.0019,139.998,45.000,31426.52080,1.94176,406.909,30.988,45.070,45.000,0.00,0.09,-272.73,-272.80,-0,513,-940,15.5,8.8,-17.5,15.8,8.8,-17.2,5.73,2.12,-12.6,22.3
2015-11-12 01:40:00,0.0,1.93777,0.00038,405.882,0.030,0.2041,0.0016,140.001,45.000,31425.77940,1.94168,406.882,30.988,45.071,45.000,0.00,0.09,-272.74,-272.78,-2,513,-940,15.5,8.8,-17.5,15.8,8.8,-17.2,5.73,2.10,-12.6,22.3
2015-11-12 01:41:00,0.0,1.93814,0.00039,405.919,0.032,0.2048,0.0021,139.998,45.000,31424.07237,1.94208,406.924,30.997,45.071,45.000,0.00,0.09,-272.73,-272.78,-1,513,-940,15.5,8.8,-17.5,15.8,8.8,-17.2,5.73,1.89,-12.6,22.3
2015-11-12 01:42:00,0.0,1.93765,0.00037,405.908,0.036,0.2041,0.0017,139.997,45.000,31424.39009,1.94157,406.911,30.998,45.070,45.000,0.00,0.09,-272.73,-272.79,-1,513,-940,15.5,8.8,-17.5,15.8,8.8,-17.2,5.73,2.07,-12.6,22.4
2015-11-12 01:43:00,0.0,1.93793,0.00039,405.902,0.039,0.2051,0.0016,139.998,45.000,31425.00649,1.94183,406.906,30.997,45.070,45.000,0.00,0.09,-272.74,-272.79,-2,513,-940,15.6,8.8,-17.5,15.8,8.8,-17.2,5.73,2.15,-12.6,22.3
2015-11-12 01:44:00,0.0,1.93792,0.00042,405.896,0.043,0.2048,0.0012,139.996,45.001,31426.40654,1.94187,406.902,30.996,45.070,45.000,0.00,0.09,-272.73,-272.78,-0,513,-940,15.6,8.8,-17.5,15.8,8.8,-17.2,5.73,1.91,-12.6,22.3
2015-11-12 01:45:00,0.0,1.93784,0.00029,405.862,0.032,0.2052,0.0016,140.000,45.000,31425.28020,1.94175,406.869,30.967,45.070,45.000,0.00,0.09,-272.73,-272.79,-1,513,-940,15.6,8.8,-17.5,15.8,8.9,-17.2,5.73,2.00,-12.6,22.3